Regional Weather Roundup
Issued by NWS Jackson, KY

Home | Current Version | Previous Version | Text Only | Print | Product List | Glossary On
Versions: 1 2 3 4 5 6 7 8 9 10 11 12 13 14 15 16 17 18 19 20 21 22 23 24 25 26 27 28 29 30 31 32 33 34 35 36 37 38 39 40 41 42 43 44 45 46 47 48 49 50
000
ASUS43 KJKL 261410
RWRJKL

EAST KENTUCKY HOURLY WEATHER ROUNDUP
NATIONAL WEATHER SERVICE JACKSON KY
1000 AM EDT TUE JUL 26 2016

NOTE: "FAIR" INDICATES FEW OR NO CLOUDS BELOW 12,000 FEET WITH
NO SIGNIFICANT WEATHER AND/OR OBSTRUCTIONS TO VISIBILITY.

* THESE REPORTS ARE NOT UNDER NWS QUALITY CONTROL AND MAY NOT
  REPORT WEATHER SUCH AS PRECIPITATION AND FOG.

KYZ079-080-083-085-087-088-110-112-115-119-120-261500
...EASTERN KENTUCKY...

CITY           SKY/WX    TMP DP  RH WIND       PRES   REMARKS
JACKSON        PTSUNNY   77  72  84 CALM      30.10S
LONDON         SUNNY     81  71  71 SW3       30.09S
SOMERSET*      SUNNY     77  75  94 CALM      30.09S
MONTICELLO*    SUNNY    N/A N/A N/A NW8       30.08F
WILLIAMSBURG*  SUNNY     81  75  83 CALM      30.09S
MIDDLESBORO*   SUNNY     78  72  82 CALM      30.10F
HARLAN APT*      N/A     77  68  73 CALM      30.12F
PIKE CO APT*     N/A     74  74 100 CALM      30.11S
BIG SANDY APT* CLOUDY    75  75 100 CALM      30.09S
MOREHEAD APT*  MOSUNNY   77  73  88 S5        30.09S
ASHLAND*       PTSUNNY   79  73  83 CALM      30.03S
$$

KYZ035-036-041-042-044-050-067-078-099-261500
...CENTRAL KENTUCKY...

CITY           SKY/WX    TMP DP  RH WIND       PRES   REMARKS
MT STERLING*   MOSUNNY   79  73  83 CALM      30.08F
FLEMING/MASON* PTSUNNY   79  75  86 CALM      30.07S
DANVILLE*      SUNNY     79  72  78 CALM      30.08F
RICHMOND*      SUNNY     79  72  78 CALM      30.08S
LEXINGTON      SUNNY     81  73  76 SW6       30.07S
FRANKFORT      SUNNY     82  71  69 SW3       30.04F
LOUISVILLE     PTSUNNY   82  74  76 SE3       30.02F
LEBANON*         N/A     81  73  78 CALM      30.06F
GLASGOW*       SUNNY     83  74  73 CALM      30.04S HX  90
BOWLING GREEN  SUNNY     85  76  74 CALM      30.04S HX  94
$$

KYZ091>093-OHZ055-061-077-WVZ005-015-034-035-042-261500
...SOUTHERN OHIO/WEST VIRGINIA...

CITY           SKY/WX    TMP DP  RH WIND       PRES   REMARKS
COVINGTON      PTSUNNY   83  70  64 E5        30.05S
COLUMBUS       PTSUNNY   79  67  66 CALM      30.04S
DAYTON         PTSUNNY   78  65  63 VRB3      30.07S
WILMINGTON     CLOUDY    77  70  79 NE5       30.05S
HUNTINGTON     PTSUNNY   80  74  81 SW5       30.05S
CHARLESTON     PTSUNNY   80  72  76 SW3       30.06S
PINEVILLE*       N/A     80  69  68 MISG      30.16F
BECKLEY          N/A     76  69  79 SW5       30.15S
BLUEFIELD        N/A     75  68  78 NW8       30.18S
LOGAN CO APT*  CLOUDY    77  73  88 VRB5      30.09F
$$

VAZ002-007-008-TNZ017-027-036-066-071-261500
...SOUTHWEST VIRGINIA/EAST TENNESSEE...

CITY           SKY/WX    TMP DP  RH WIND       PRES   REMARKS
WISE*            N/A     77  68  73 W5        30.18S
JONESVILLE*      N/A     81  72  74 CALM      30.13S
ABINGDON*        N/A     80  72  77 W8        30.15S
BRISTOL        MOSUNNY   81  71  71 CALM      30.12S
MORRISTOWN*    SUNNY     81  73  78 SW6       30.09F
SEVIERVILLE*   SUNNY     84  70  61 CALM      30.07F
KNOXVILLE      CLOUDY    83  71  67 VRB3      30.07S
OAK RIDGE      CLOUDY    83  72  69 SW3       30.09S
CROSSVILLE     CLOUDY    80  71  74 W3        30.13S
NASHVILLE      MOSUNNY   85  74  69 SE3       30.05S HX  92
$$

...KEY TO REMARKS...
VSB - VISIBILITY IN MILES
WCI - WIND CHILL INDEX
HX  - HEAT INDEX

$$



USA.gov is the U.S. government's official web portal to all federal, state and local government web resources and services.